Location: Albuquerque Trailhead
(34.7934°N, 106.3736°W)
Time: 16:22:35
(UTC+00:00)

Cosmos 1484 Rocket - Pass Details

Date: 20 June 2021
Orbit: 505 x 558 km, 97.4° (Epoch: 26 July)

Event Time Altitude Azimuth Distance (km) Brightness Sun altitude
Rises 11:14:00 0° 15° (NNE) 2,611 7.2 -7.5°
Reaches altitude 10° 11:16:06 10° 19° (NNE) 1,723 6.3 -7.1°
Maximum altitude 11:19:46 61° 100° (E) 577 3.2 -6.5°
Drops below altitude 10° 11:23:26 10° 182° (S) 1,723 5.0 -5.9°
Sets 11:25:33 0° 186° (S) 2,610 5.9 -5.5°
